Wind_Speed
51 52 51 46 45 45 45 45 45 43 43 43 42 41 39 39 37 35 34 33 33 31 31 30 30 30 30 30 31 31 32 32 33 33 34 34 35 35 35 35 36 37 37 37
54 53 47 46 46 47 46 46 44 43 42 43 43 42 40 39 39 37 36 35 34 33 33 32 32 33 33 33 32 33 33 33 33 34 35 35 35 35 35 36 37 38 38 38
52 48 46 47 48 48 47 45 43 42 42 43 44 43 41 40 39 38 37 36 36 35 34 34 34 34 34 33 33 33 34 34 35 35 35 36 36 36 36 37 38 38 38 38
52 50 49 49 48 47 47 44 42 42 42 42 43 43 40 39 39 37 36 36 35 35 35 35 34 34 34 34 34 35 35 35 35 35 36 36 36 37 37 38 38 38 38 38
52 51 50 49 46 45 43 42 43 42 42 43 42 43 39 39 37 35 36 36 36 36 35 35 35 34 34 34 34 35 35 35 35 35 36 37 37 37 37 37 37 37 37 38
51 50 49 47 45 45 44 43 43 43 44 44 41 43 40 36 35 34 35 35 35 35 35 35 35 35 34 34 34 34 35 35 35 35 36 36 37 37 36 36 37 37 37 38
54 53 51 49 48 48 47 46 45 45 46 44 41 43 40 34 34 34 35 35 35 35 35 35 35 34 34 34 34 34 35 34 34 35 35 36 36 36 36 37 37 37 37 37
53 54 53 51 50 47 46 46 45 45 44 42 41 42 38 34 33 34 34 35 35 35 35 35 35 34 34 34 34 34 34 34 34 35 35 35 35 35 36 36 36 36 36 36
52 52 50 49 47 46 45 44 42 43 43 43 42 39 36 33 32 32 32 33 33 34 34 34 34 34 34 33 33 33 33 34 34 34 34 34 35 35 35 35 35 36 36 36
51 51 50 48 48 48 45 43 43 44 43 43 42 39 35 32 31 30 30 30 31 31 32 32 32 32 33 33 33 33 33 33 33 33 33 34 34 34 34 35 35 36 36 36
50 51 51 50 50 48 47 47 46 44 44 43 41 38 32 30 29 29 28 28 28 29 29 29 30 30 31 31 31 31 31 31 32 32 32 32 33 33 33 34 34 35 35 36
49 49 50 50 47 46 46 45 45 45 44 42 40 36 32 30 28 28 27 27 27 27 27 27 28 29 30 30 30 29 29 30 30 31 31 31 32 32 33 33 34 35 35 36
49 50 50 50 51 49 48 47 46 44 43 42 40 36 32 30 29 28 28 27 26 26 26 26 27 28 28 28 28 28 28 29 30 30 31 31 31 32 32 33 33 34 35 36
49 50 50 49 47 46 47 46 45 45 44 41 37 33 31 30 29 29 28 27 26 26 26 26 26 26 26 27 27 28 28 29 29 30 30 30 31 31 32 32 33 33 34 35
51 50 49 48 47 45 45 44 44 44 42 40 35 33 31 30 29 29 29 27 26 26 25 26 25 25 26 27 27 27 28 28 28 29 29 30 30 31 31 31 32 33 34 35
49 49 49 48 48 48 47 46 45 44 42 41 38 34 31 31 31 31 29 27 26 25 25 25 25 26 26 26 27 27 27 28 28 29 29 30 30 30 31 31 32 33 35 36
48 49 49 48 48 49 51 47 45 43 41 40 38 31 30 32 32 30 29 27 26 26 26 26 26 26 26 26 27 27 28 28 28 29 29 29 30 30 31 32 33 34 36 37
46 47 47 48 48 50 45 43 44 42 41 39 36 33 32 32 31 31 29 28 27 26 26 26 26 26 26 26 27 27 28 28 28 29 29 29 29 30 31 33 34 35 36 37
46 45 46 48 48 47 44 42 40 40 39 37 35 33 32 32 33 31 28 28 27 27 26 26 26 26 26 27 27 28 28 28 28 28 29 29 30 31 32 33 34 36 37 38
48 47 46 46 45 44 40 38 37 38 38 34 34 32 32 33 32 26 27 28 27 27 27 27 27 27 27 28 28 28 28 28 28 29 29 30 31 32 33 34 35 36 37 38
48 49 49 47 45 42 39 37 36 36 28 28 30 30 31 32 27 25 27 27 27 27 27 27 28 28 28 28 28 28 28 28 29 29 30 30 31 32 33 34 35 36 37 38
46 47 49 48 47 43 39 37 35 29 27 28 28 29 30 29 28 28 27 27 26 26 27 27 28 28 28 28 28 28 28 28 29 29 30 31 31 32 33 35 35 36 38 39
44 44 44 46 44 39 36 35 32 31 30 29 29 28 28 28 27 27 27 27 26 26 26 27 27 27 27 28 28 28 28 28 29 29 30 31 32 33 34 35 36 37 39 40
43 43 42 43 42 38 33 33 33 32 30 29 29 28 27 27 26 26 26 26 26 26 26 26 27 27 27 27 28 28 28 28 29 30 31 31 33 34 35 36 37 38 40 42
42 41 42 43 39 37 35 32 31 30 29 29 28 28 27 26 26 26 26 26 26 26 26 26 27 27 27 28 28 28 29 29 30 31 32 32 33 34 35 37 38 40 41 43
41 41 42 40 37 36 33 32 31 30 28 27 27 27 26 26 26 27 27 26 26 26 26 26 27 27 27 27 28 28 29 30 31 31 32 33 34 35 36 38 40 41 43 44
Wind_Direction
228 229 230 231 233 233 233 234 234 234 234 236 237 237 238 241 243 245 247 250 253 256 258 260 263 265 267 269 272 274 277 278 280 283 284 286 287 288 289 289 290 290 290 290
227 229 229 230 230 231 232 234 235 234 235 236 237 238 239 242 244 246 248 251 254 256 258 261 263 266 268 270 272 273 275 278 279 281 283 284 285 286 287 287 288 289 289 289
228 229 229 229 229 231 232 234 234 235 236 238 239 238 239 242 244 246 249 252 254 256 258 260 262 265 267 269 271 273 275 277 279 280 281 282 283 285 285 286 287 288 288 289
225 224 226 228 229 230 231 232 234 235 236 238 240 240 238 241 243 246 249 252 255 257 258 260 262 264 266 269 271 273 275 276 278 279 280 281 283 284 284 285 286 286 287 288
223 224 225 227 228 229 230 231 233 235 237 238 239 242 237 241 244 248 251 253 255 257 258 260 263 265 266 268 270 272 274 276 277 278 279 280 281 282 284 285 285 286 286 287
222 223 225 225 226 227 227 229 231 234 236 238 238 244 241 241 245 248 251 254 256 257 259 261 263 264 266 267 269 271 273 274 276 277 278 280 281 282 283 284 284 285 286 286
219 220 222 222 223 224 226 227 229 232 236 239 239 244 246 244 246 248 250 253 256 258 260 261 262 264 266 267 269 270 272 273 275 276 277 279 280 281 282 283 284 284 285 285
220 220 220 222 223 226 228 229 231 235 239 241 242 244 247 246 247 249 251 254 256 258 259 261 263 264 266 267 269 270 272 273 274 276 277 278 279 280 281 282 283 284 284 285
221 222 221 223 224 225 226 229 231 235 238 240 241 243 244 247 249 250 251 253 255 257 259 261 263 265 267 268 269 270 271 273 274 275 276 277 279 280 280 282 283 283 284 285
223 224 221 222 223 224 226 229 229 232 236 241 242 242 243 247 251 252 252 253 255 256 259 261 263 264 266 267 268 270 271 273 274 275 276 277 278 279 280 281 282 283 283 285
221 224 222 222 223 223 224 226 229 233 237 239 242 243 244 247 249 251 252 253 255 256 258 260 262 263 265 267 268 270 271 272 273 274 276 277 278 279 280 281 282 283 284 285
219 222 223 223 223 224 227 228 230 233 237 239 242 242 243 246 247 250 252 253 255 257 259 260 262 263 265 267 269 270 270 272 273 274 275 277 278 280 281 281 282 283 285 286
218 221 222 221 221 221 223 224 227 231 235 237 238 240 242 245 248 250 252 254 256 258 259 259 261 263 265 266 267 269 270 272 273 274 276 277 279 281 282 282 283 284 285 286
217 221 222 224 224 224 225 226 227 230 233 236 238 240 242 244 248 250 253 255 256 256 257 258 260 262 264 265 266 268 269 272 274 275 277 278 280 281 282 283 284 285 286 287
214 218 220 222 223 225 227 228 229 232 234 237 238 240 242 245 247 249 251 252 254 255 257 258 259 261 262 264 266 268 270 272 274 276 277 279 280 282 283 284 285 287 288 288
211 215 217 219 221 224 224 224 227 229 231 233 235 236 238 243 244 246 248 250 252 254 256 257 259 260 262 264 267 269 271 273 275 276 277 279 280 282 284 285 287 288 289 290
211 214 216 218 220 224 225 224 227 229 230 233 235 234 237 240 244 247 249 250 251 252 254 256 258 260 262 264 267 269 271 273 275 276 278 280 282 284 285 286 287 288 290 291
211 215 217 219 220 225 223 225 227 229 231 233 234 232 235 239 242 244 247 249 250 252 254 255 258 260 263 265 267 270 272 273 274 277 279 281 283 284 285 287 289 290 291 293
210 211 214 217 221 224 223 222 225 229 229 230 233 232 233 236 239 241 245 249 251 253 254 256 258 261 264 266 268 270 272 273 276 278 280 282 283 285 286 288 290 291 293 294
212 213 215 216 219 220 220 223 226 229 229 227 232 231 232 236 240 242 245 247 249 251 253 256 258 261 264 267 268 270 271 273 276 278 280 282 284 286 288 290 292 293 294 296
216 216 217 218 220 219 218 222 226 228 224 227 231 231 233 237 239 239 241 245 248 251 253 255 258 261 265 267 268 269 271 274 276 279 281 283 285 287 289 291 293 295 296 298
215 217 218 219 220 220 221 223 225 226 225 227 229 231 233 235 235 238 242 245 247 250 253 256 259 262 265 267 268 269 272 274 277 279 282 284 286 289 291 293 295 296 298 299
215 218 220 221 221 222 222 220 221 224 225 225 227 229 231 233 235 239 243 245 247 250 253 255 258 262 264 266 267 270 272 275 278 281 283 285 288 290 292 294 296 298 300 301
214 214 215 218 217 219 219 219 221 224 223 224 226 227 230 232 235 239 242 244 247 250 253 256 259 262 264 266 268 270 273 276 279 282 285 287 290 292 294 296 298 300 302 303
210 211 214 215 214 215 216 218 220 219 218 219 222 225 229 232 236 239 242 244 248 251 254 257 259 261 263 266 269 271 274 277 281 284 286 289 291 293 296 298 300 302 303 305
210 210 212 212 211 211 211 216 216 216 217 219 222 224 229 232 236 238 241 246 249 252 255 257 259 261 264 268 271 273 276 279 282 285 288 290 293 295 297 299 301 303 305 307
Height
5722 5728 5737 5746 5752 5756 5760 5764 5769 5775 5779 5782 5785 5790 5793 5796 5800 5803 5806 5808 5810 5812 5813 5814 5816 5817 5818 5819 5819 5818 5818 5817 5816 5815 5814 5812 5811 5809 5807 5805 5802 5800 5798 5795
5711 5719 5732 5736 5740 5744 5750 5755 5761 5766 5769 5773 5777 5781 5785 5788 5792 5796 5798 5801 5803 5805 5806 5808 5808 5809 5810 5811 5811 5811 5810 5809 5808 5807 5806 5804 5803 5801 5799 5797 5794 5792 5790 5787
5703 5716 5721 5725 5730 5735 5741 5747 5753 5757 5761 5763 5768 5773 5777 5780 5784 5787 5790 5793 5795 5797 5799 5800 5801 5802 5802 5803 5803 5803 5802 5801 5800 5799 5798 5796 5795 5793 5791 5789 5786 5784 5782 5779
5692 5702 5708 5713 5720 5727 5733 5740 5744 5747 5751 5755 5759 5763 5770 5772 5776 5779 5783 5785 5787 5789 5790 5792 5793 5794 5794 5794 5794 5794 5794 5793 5792 5791 5789 5788 5787 5785 5783 5780 5778 5776 5773 5771
5683 5692 5697 5704 5714 5720 5727 5731 5735 5738 5741 5745 5749 5753 5762 5765 5769 5772 5775 5777 5779 5781 5782 5783 5784 5785 5786 5786 5786 5785 5785 5784 5783 5782 5781 5779 5778 5776 5774 5772 5770 5767 5765 5763
5675 5681 5688 5698 5705 5711 5716 5720 5724 5727 5730 5736 5742 5743 5751 5758 5762 5764 5766 5768 5770 5772 5773 5774 5775 5776 5777 5777 5777 5777 5776 5775 5774 5773 5772 5771 5769 5767 5765 5763 5761 5759 5757 5754
5661 5669 5677 5685 5692 5698 5704 5710 5714 5717 5720 5727 5734 5735 5743 5751 5754 5755 5758 5760 5761 5763 5764 5765 5766 5767 5767 5768 5768 5768 5767 5767 5766 5765 5764 5762 5760 5759 5757 5755 5753 5751 5748 5746
5651 5659 5668 5675 5682 5690 5696 5701 5707 5711 5715 5720 5724 5727 5736 5741 5744 5746 5749 5751 5753 5754 5755 5756 5757 5758 5758 5758 5759 5759 5758 5758 5757 5756 5755 5753 5752 5750 5748 5746 5744 5742 5740 5737
5643 5653 5662 5668 5676 5682 5686 5691 5699 5703 5705 5710 5713 5720 5726 5731 5735 5738 5740 5742 5744 5745 5746 5747 5748 5748 5749 5749 5750 5750 5749 5749 5748 5747 5746 5744 5743 5741 5739 5737 5736 5733 5731 5729
5635 5643 5651 5659 5664 5670 5678 5684 5687 5691 5696 5700 5705 5712 5719 5723 5726 5729 5731 5733 5735 5736 5737 5738 5739 5740 5740 5740 5741 5741 5740 5740 5739 5738 5737 5736 5734 5733 5731 5729 5727 5725 5723 5721
5624 5632 5640 5646 5651 5661 5667 5673 5678 5683 5687 5692 5697 5706 5712 5715 5718 5720 5722 5724 5726 5727 5729 5730 5730 5731 5731 5732 5732 5732 5732 5731 5730 5730 5729 5727 5726 5724 5723 5721 5719 5717 5714 5712
5614 5621 5628 5637 5646 5653 5659 5665 5670 5676 5680 5685 5690 5700 5703 5707 5709 5712 5714 5716 5718 5719 5720 5721 5722 5723 5723 5723 5723 5723 5723 5723 5722 5721 5720 5719 5718 5716 5715 5713 5711 5708 5706 5703
5603 5610 5617 5624 5633 5640 5646 5653 5660 5667 5671 5675 5681 5691 5695 5698 5701 5704 5706 5708 5710 5711 5712 5713 5714 5714 5715 5715 5715 5715 5715 5715 5714 5713 5712 5711 5710 5708 5706 5704 5702 5700 5697 5695
5593 5599 5608 5616 5625 5633 5639 5646 5652 5657 5661 5667 5674 5682 5686 5690 5693 5696 5698 5700 5702 5703 5705 5706 5706 5707 5707 5707 5707 5707 5707 5707 5706 5705 5704 5703 5701 5700 5698 5696 5694 5691 5689 5686
5582 5590 5599 5609 5616 5624 5630 5637 5642 5648 5655 5661 5668 5673 5678 5682 5685 5687 5689 5691 5693 5695 5697 5698 5698 5699 5699 5700 5700 5699 5699 5699 5698 5697 5696 5694 5693 5691 5690 5687 5685 5683 5680 5677
5573 5582 5591 5598 5605 5612 5618 5626 5632 5639 5646 5652 5658 5664 5670 5672 5675 5678 5681 5683 5686 5687 5689 5690 5691 5691 5692 5692 5692 5692 5691 5691 5690 5689 5688 5686 5685 5683 5681 5679 5677 5674 5671 5668
5565 5574 5582 5589 5595 5600 5607 5618 5625 5631 5638 5644 5649 5659 5661 5663 5666 5669 5672 5675 5678 5679 5681 5682 5683 5683 5684 5684 5684 5684 5683 5683 5682 5681 5680 5678 5677 5675 5673 5670 5668 5665 5662 5659
5557 5565 5573 5580 5586 5591 5606 5613 5618 5624 5630 5636 5642 5648 5651 5655 5657 5660 5664 5667 5669 5671 5672 5674 5675 5675 5676 5676 5676 5676 5675 5675 5674 5673 5671 5670 5668 5666 5664 5662 5659 5656 5653 5650
5549 5557 5564 5571 5577 5585 5596 5604 5610 5615 5621 5629 5633 5638 5642 5645 5647 5651 5656 5658 5660 5662 5664 5665 5667 5667 5668 5668 5668 5668 5667 5666 5665 5664 5663 5662 5660 5658 5655 5653 5650 5647 5644 5640
5540 5548 5555 5562 5569 5577 5591 5598 5602 5607 5612 5621 5624 5629 5633 5635 5639 5646 5648 5649 5652 5654 5656 5657 5658 5659 5660 5660 5660 5659 5659 5658 5657 5656 5655 5653 5651 5649 5647 5644 5641 5638 5634 5630
5531 5537 5545 5554 5561 5572 5583 5588 5593 5601 5611 5614 5617 5621 5624 5628 5634 5638 5639 5641 5644 5646 5648 5649 5650 5651 5651 5651 5651 5651 5651 5650 5649 5648 5646 5645 5643 5640 5638 5635 5632 5628 5625 5621
5524 5531 5539 5546 5555 5568 5575 5581 5588 5596 5601 5604 5608 5612 5616 5621 5625 5627 5630 5633 5636 5638 5640 5641 5642 5643 5643 5643 5643 5643 5642 5642 5641 5639 5638 5636 5634 5632 5629 5626 5623 5619 5615 5611
5517 5526 5533 5542 5554 5562 5568 5575 5581 5586 5591 5595 5599 5604 5608 5613 5616 5620 5623 5625 5628 5630 5632 5633 5634 5634 5635 5635 5635 5635 5634 5633 5632 5631 5629 5627 5625 5623 5620 5617 5613 5609 5605 5601
5509 5517 5525 5534 5545 5554 5560 5566 5572 5578 5583 5587 5592 5597 5601 5605 5609 5612 5615 5618 5620 5622 5624 5625 5626 5626 5627 5627 5627 5627 5626 5625 5624 5622 5621 5618 5616 5613 5610 5607 5604 5600 5595 5591
5502 5509 5517 5526 5537 5545 5552 5559 5565 5571 5575 5580 5585 5589 5593 5597 5601 5605 5608 5610 5612 5614 5616 5617 5618 5618 5619 5619 5619 5618 5618 5617 5615 5614 5612 5610 5607 5604 5601 5598 5594 5590 5585 5580
5496 5504 5512 5521 5531 5538 5546 5552 5557 5562 5568 5573 5577 5581 5586 5590 5594 5597 5600 5602 5605 5606 5608 5609 5610 5610 5611 5611 5610 5610 5609 5608 5607 5605 5603 5601 5598 5595 5592 5588 5584 5579 5574 5569